This demonstration page uses our WeatherBlox Daily Observations layout. Learn more.

Left ArrowRight Arrow

41.55636, -103.73856

Hourly Observations for March 20, 2021

Temp ( °F °C ) Dew Point ( °F °C ) Humidity (%) Winds ( mph kmh ) Pressure ( in mb ) Visibility ( mi km ) Precip ( " mm )
1:58 am 01:58 Partly Cloudy 33 0.5 28 -2.3 82 82 SSW 16 26 30.10 1019 9 14 0.00 0.00
2:58 am 02:58 Mostly Clear 33 0.4 28 -2.3 82 82 SSW 20 31 30.08 1019 10 16 0.00 0.00
3:58 am 03:58 Mostly Clear 35 1.6 28 -2.2 76 76 SW 20 31 30.06 1018 10 16 0.00 0.00
4:58 am 04:58 Mostly Clear 34 1.2 28 -2.1 79 79 SW 21 33 30.04 1017 10 16 0.00 0.00
5:58 am 05:58 Mostly Cloudy 38 3.4 30 -1.1 73 73 SW 22 35 30.02 1017 10 16 0.00 0.00
6:58 am 06:58 Mostly Cloudy 40 4.7 28 -2.1 62 62 SW 20 31 29.98 1015 10 16 0.00 0.00
7:58 am 07:58 Partly Cloudy 38 3.4 28 -2.5 66 66 SW 18 30 30.00 1016 10 16 0.00 0.00
8:58 am 08:58 Mostly Cloudy 37 2.6 28 -2.5 69 69 SSW 13 20 30.00 1016 10 16 0.00 0.00
9:58 am 09:58 Sunny 40 4.6 29 -1.9 63 63 SW 18 30 29.98 1015 10 16 0.00 0.00
10:58 am 10:58 Sunny 42 5.5 29 -1.9 59 59 SW 18 30 29.94 1014 10 16 0.00 0.00
11:58 am 11:58 Sunny 43 5.9 28 -2.2 56 56 SW 14 22 29.93 1013 10 16 0.00 0.00
12:58 pm 12:58 Sunny 40 4.2 29 -1.4 67 67 SSW 12 19 29.89 1012 10 16 0.00 0.00
1:58 pm 13:58 Hazy 38 3.1 30 -1 75 75 S 16 26 29.88 1012 6 10 0.00 0.00
2:58 pm 14:58 Hazy 37 2.7 31 -0.4 80 80 SSW 15 24 29.86 1011 3 5 0.00 0.00
3:58 pm 15:58 Hazy 38 3.1 32 0 80 80 S 16 26 29.84 1010 4 6 0.00 0.00
4:58 pm 16:58 Sunny 39 3.8 30 -1.1 71 71 SSW 16 26 29.80 1009 8 13 0.00 0.00
5:58 pm 17:58 Sunny 39 3.9 30 -1.1 70 70 SSW 16 26 29.75 1008 10 16 0.00 0.00
6:58 pm 18:58 Sunny 40 4.2 31 -0.5 72 72 S 16 26 29.74 1007 10 16 0.00 0.00
7:58 pm 19:58 Clear 38 3.6 32 -0.2 76 76 SSW 15 24 29.72 1007 10 16 0.00 0.00
8:58 pm 20:58 Clear 41 5.2 32 0 69 69 SW 14 22 29.72 1007 10 16 0.00 0.00
9:58 pm 21:58 Clear 43 6.3 32 0 64 64 SW 13 20 29.70 1006 10 16 0.00 0.00
10:58 pm 22:58 Clear 41 4.8 29 -1.6 64 64 WNW 25 41 29.72 1006 10 16 0.00 0.00
11:58 pm 23:58 Clear 35 1.4 29 -1.9 79 79 NW 31 50 29.78 1009 10 16 0.00 0.00

Powered by AerisWeather